EA2DUR Weather Reports


Display with metric or nautical units.
time (UTC)temp
F
wind
direction
speed
MPH
gust
MPH
rain 1hr
in
rain 24hr
in
rain mn
in
humidity
%
barometer
mb
20260502221600 54 117 3.0 7.0 0.00 0.00 0.00 94 947.0
20260502220104 54 148 3.0 8.0 0.00 0.00 0.00 94 947.0
20260502214556 54 134 3.0 9.0 0.00 0.00 0.00 94 946.9
20260502213055 54 185 5.0 10.0 0.00 0.00 0.00 94 946.9
20260502211555 54 190 3.0 8.0 0.00 0.00 0.00 95 946.9
20260502210104 55 161 2.0 5.0 0.00 0.00 0.00 95 947.0
20260502204553 55 186 2.0 5.0 0.00 0.00 0.00 95 946.8
20260502203053 55 188 2.0 6.0 0.00 0.00 0.00 95 946.8
20260502201559 55 138 4.0 7.0 0.00 0.00 0.00 94 946.7
20260502200059 55 185 4.0 7.0 0.00 0.00 0.00 94 946.9
20260502194555 55 144 2.0 9.0 0.00 0.00 0.00 93 946.6
20260502193050 55 131 7.0 10.0 0.00 0.00 0.00 94 946.4
20260502191553 55 157 2.0 9.0 0.00 0.00 0.00 94 946.2
20260502184556 55 115 8.0 11.0 0.00 0.00 0.00 95 946.4
20260502183046 56 118 7.0 10.0 0.00 0.00 0.00 95 946.6
20260502181543 57 170 2.0 5.0 0.00 0.00 0.00 95 946.7
20260502180104 57 161 2.0 7.0 0.00 0.00 0.00 94 946.6
20260502163037 57 157 2.0 6.0 0.00 0.00 0.00 92 946.4
20260502161536 57 165 2.0 6.0 0.00 0.00 0.00 91 946.6
20260502151534 57 173 3.0 7.0 0.00 0.00 0.00 92 946.9
20260502123023 60 158 7.0 15.0 0.00 0.00 0.00 84 947.7
20260502121524 59 171 5.0 18.0 0.00 0.00 0.00 87 948.0
20260502114520 58 138 7.0 16.0 0.00 0.00 0.00 91 947.9
20260502113018 58 138 9.0 20.0 0.00 0.00 0.00 91 948.3
20260502111514 58 142 10.0 20.0 0.00 0.00 0.00 92 948.8
20260502110012 58 95 9.0 18.0 0.00 0.00 0.00 89 949.1
20260502104512 60 147 8.0 16.0 0.00 0.00 0.00 85 949.8
20260502103012 60 180 7.0 22.0 0.00 0.00 0.00 84 949.8
20260502101512 60 171 7.0 22.0 0.00 0.00 0.00 85 949.4
20260502091507 58 183 10.0 18.0 0.00 0.00 0.00 88 949.6
20260502080109 58 183 9.0 21.0 0.00 0.00 0.00 87 949.8
20260502070057 57 162 10.0 22.0 0.00 0.00 0.00 87 949.7
20260502064600 57 178 7.0 19.0 0.00 0.00 0.00 88 949.7
20260502063100 57 159 7.0 17.0 0.00 0.00 0.00 88 949.8
20260502061553 57 138 10.0 22.0 0.00 0.00 0.00 88 949.6
20260502054548 57 169 9.0 24.0 0.00 0.00 0.00 88 949.2
20260502053053 57 149 13.0 31.0 0.00 0.00 0.00 89 949.3
20260502051554 57 198 13.0 26.0 0.00 0.00 0.00 89 949.2
20260502050038 57 162 12.0 26.0 0.00 0.00 0.00 89 949.5
20260502044540 57 155 14.0 25.0 0.00 0.00 0.00 89 949.8
20260502043035 57 206 14.0 21.0 0.00 0.00 0.00 89 949.6
20260502041537 57 171 8.0 18.0 0.00 0.00 0.00 88 949.7
20260502040031 57 108 11.0 19.0 0.00 0.00 0.00 88 949.9
20260502034533 57 137 10.0 21.0 0.00 0.00 0.00 87 950.1
20260502033031 57 180 8.0 17.0 0.00 0.00 0.00 87 950.0
20260502031529 57 150 11.0 21.0 0.00 0.00 0.00 86 949.8
20260502030027 57 186 9.0 17.0 0.00 0.00 0.00 85 949.8
20260502024525 58 128 9.0 21.0 0.00 0.00 0.00 84 949.8
20260502023023 58 99 6.0 20.0 0.00 0.00 0.00 84 950.0
20260502021518 58 144 9.0 21.0 0.00 0.00 0.00 83 950.3
20260502020020 58 175 12.0 20.0 0.00 0.00 0.00 83 950.6
20260502014513 58 140 10.0 22.0 0.00 0.00 0.00 82 950.6
20260502013011 59 168 10.0 18.0 0.00 0.00 0.00 82 950.6
20260502011533 59 123 9.0 21.0 0.00 0.00 0.00 81 950.6
20260502010007 59 147 6.0 18.0 0.00 0.00 0.00 81 950.6
20260502004505 59 172 8.0 18.0 0.00 0.00 0.00 80 950.7
20260502003005 60 147 6.0 17.0 0.00 0.00 0.00 80 950.8
20260502001600 60 173 6.0 12.0 0.00 0.00 0.00 79 951.0
20260502000113 60 151 7.0 19.0 0.00 0.00 0.00 79 951.1
20260501234555 60 178 10.0 17.0 0.00 0.00 0.00 80 951.2
20260501233053 61 203 6.0 18.0 0.00 0.00 0.00 80 951.2
20260501231601 61 210 8.0 19.0 0.00 0.00 0.00 81 951.4
20260501230051 61 149 7.0 13.0 0.00 0.00 0.00 80 951.4
20260501224554 62 219 6.0 16.0 0.00 0.00 0.00 79 951.2
20260501223043 62 136 5.0 17.0 0.00 0.00 0.00 79 951.2